Location: Zagreb
(45.8000°N, 16.0000°E)
Time: 18:55:49
(UTC+01:00)

YUBILEINY - Pass Details

Date: 02 November 2020
Orbit: 1478 x 1509 km, 82.5° (Epoch: 01 December)

Event Time Altitude Azimuth Distance (km) Brightness Sun altitude
Rises 19:27:35 0° 355° (N) 4,611 ? -29.5°
Reaches altitude 10° 19:31:11 10° 8° (N) 3,627 ? -30.1°
Enters shadow 19:34:55 21° 31° (NNE) 2,840 ? -30.7°
